Location: Natural Bridges National Monument
(37.6093°N, 109.9767°W)
Time: 21:19:36
(UTC-06:00)

Amateur Radio Satellites - All Passes

Search period start: 28 March 2017 20:49
Search period end: 29 March 2017 20:49
Location: Natural Bridges National Monument, 37.6093°N, 109.9767°W

Satellite Date Start Highest point End Downlink Frequencies (MHz)
Time Altitude Azimuth
AO-85 28 Mar 20:56:47 21:01:16 84° 119° (ESE) 21:05:28 145.980
AAUSAT CUBESAT 2 28 Mar 20:59:39 21:03:44 77° 258° (WSW) 21:07:51 437.432
UWE-3 28 Mar 21:03:34 21:08:14 83° 257° (WSW) 21:12:52 435.000/436.395/437.385
M-CUBED/EXP-1 PRIME 28 Mar 21:04:30 21:07:57 21° 298° (WNW) 21:11:22 437.505
XW-2A 28 Mar 21:05:11 21:06:12 11° 267° (W) 21:07:14 145.665 - 145.685
STRAND 1 28 Mar 21:17:46 21:22:41 50° 288° (WNW) 21:27:35 437.568
SEEDS 28 Mar 21:24:10 21:27:06 19° 266° (W) 21:30:04 437.485
Oscar 11 28 Mar 21:26:50 21:31:08 79° 78° (ENE) 21:35:28 .
YUBILEINY 28 Mar 21:33:38 21:38:43 17° 282° (WNW) 21:43:49 435.215
ZACube-1 28 Mar 21:38:51 21:43:20 58° 260° (W) 21:47:46 437.345
CUBEBUG 2 28 Mar 21:44:05 21:47:31 20° 266° (W) 21:50:59 437.445
BEESAT 3 28 Mar 21:48:09 21:51:27 26° 113° (ESE) 21:54:47 437.485
HO-68 28 Mar 21:48:57 21:53:12 17° 269° (W) 21:57:29 435.675
DELFI C3 28 Mar 21:56:38 22:00:23 47° 74° (ENE) 22:04:10 145.870
Tancredo 1 28 Mar 22:05:49 22:07:28 13° 338° (NNW) 22:09:06 437.200
AO-73 28 Mar 22:06:17 22:10:18 31° 263° (W) 22:14:18 145.935
PRISM 28 Mar 22:07:17 22:10:16 19° 95° (E) 22:13:15 437.425
BEESAT 2 28 Mar 22:10:13 22:12:53 18° 110° (ESE) 22:15:34 435.950
ISS 28 Mar 22:17:29 22:19:09 13° 339° (NNW) 22:20:49 437.550
FO-29 28 Mar 22:26:42 22:27:13 10° 86° (E) 22:27:43 435.910
AO-85 28 Mar 22:40:55 22:42:08 11° 316° (NW) 22:43:19 145.980
LO-87 28 Mar 22:45:39 22:48:08 18° 69° (ENE) 22:50:38 145.935 - 145.965
RS-15 28 Mar 22:50:03 23:02:16 76° 244° (WSW) 23:13:51 29.354- 29.394
BEESAT 3 28 Mar 23:25:47 23:28:59 24° 309° (NW) 23:32:15 437.485
TIGRISAT 28 Mar 23:31:21 23:35:45 85° 103° (ESE) 23:40:01 435.000
DELFI C3 28 Mar 23:34:31 23:35:25 11° 269° (W) 23:36:19 145.870
VELOX 1 28 Mar 23:36:55 23:38:56 13° 64° (ENE) 23:40:58 145.980
PRISM 28 Mar 23:41:54 23:45:33 31° 290° (WNW) 23:49:14 437.425
UNISAT 6 28 Mar 23:42:23 23:46:44 65° 285° (WNW) 23:50:59 437.425
BEESAT 2 28 Mar 23:46:44 23:50:21 34° 306° (NW) 23:54:03 435.950
SO-50 28 Mar 23:48:22 23:52:51 66° 57° (ENE) 23:57:19 436.795
SPROUT 29 Mar 00:00:00 00:03:05 20° 68° (ENE) 00:06:11 437.525
FO-29 29 Mar 00:07:22 00:13:13 81° 285° (WNW) 00:18:31 435.910
ESTCUBE 1 29 Mar 00:09:37 00:14:04 79° 256° (WSW) 00:18:34 437.505/2401.250
POLYITAN 1 29 Mar 00:09:44 00:12:28 17° 93° (E) 00:15:09 437.675
QB50P2 29 Mar 00:14:07 00:17:18 20° 95° (E) 00:20:27 145.880/145.840
LO-87 29 Mar 00:18:26 00:21:24 24° 264° (W) 00:24:23 145.935 - 145.965
DUCHIFAT 1 29 Mar 00:22:16 00:25:17 19° 94° (E) 00:28:16 145.980
DX 1 29 Mar 00:39:33 00:43:07 25° 69° (ENE) 00:46:44 434.975-435.025
AIST 2D 29 Mar 00:51:25 00:54:53 68° 284° (WNW) 00:58:20 435.315
50 SAT 29 Mar 00:59:52 01:03:17 69° 75° (ENE) 01:06:43 437.505
RS-15 29 Mar 01:06:22 01:12:27 16° 264° (W) 01:18:27 29.354- 29.394
NANOSAT C BR1 29 Mar 01:08:51 01:13:04 78° 100° (E) 01:17:15 145.865
VELOX 1 29 Mar 01:10:34 01:14:53 55° 260° (W) 01:19:15 145.980
UKube-1 29 Mar 01:13:34 01:17:38 42° 72° (ENE) 01:21:43 .
EO-79 29 Mar 01:15:11 01:19:25 80° 284° (WNW) 01:23:37 145.935-145.965
Tancredo 1 29 Mar 01:21:09 01:22:11 11° 19° (NNE) 01:23:13 437.200
SO-50 29 Mar 01:31:23 01:32:43 11° 253° (WSW) 01:34:02 436.795
ISS 29 Mar 01:33:05 01:34:37 13° 20° (NNE) 01:36:08 437.550
SPROUT 29 Mar 01:34:52 01:38:44 33° 263° (W) 01:42:39 437.525
POLYITAN 1 29 Mar 01:44:29 01:48:21 35° 288° (WNW) 01:52:10 437.675
QB50P2 29 Mar 01:49:25 01:53:04 29° 290° (WNW) 01:56:43 145.880/145.840
DUCHIFAT 1 29 Mar 01:57:16 02:00:59 31° 289° (WNW) 02:04:39 145.980
BUGSAT 1 29 Mar 02:01:51 02:06:02 88° 276° (W) 02:10:07 437.445
DX 1 29 Mar 02:15:37 02:19:13 25° 264° (W) 02:22:50 434.975-435.025
O/OREOS (USA 219) 29 Mar 02:21:28 02:25:22 26° 61° (ENE) 02:29:14 437.305
BEESAT 29 Mar 02:22:24 02:25:42 19° 66° (ENE) 02:29:00 436.000
Oscar 19 29 Mar 02:26:54 02:31:53 46° 100° (E) 02:36:50 437.125/150
ITUPSAT 1 29 Mar 02:39:40 02:43:41 27° 68° (ENE) 02:47:43 437.325
UKube-1 29 Mar 02:51:25 02:53:50 15° 267° (W) 02:56:16 .
Tancredo 1 29 Mar 02:55:46 02:58:54 51° 37° (NE) 03:02:01 437.200
Gurwin Techsat 1B 29 Mar 03:03:18 03:08:34 59° 101° (E) 03:13:46 435.225
ISS 29 Mar 03:08:21 03:11:38 62° 38° (NE) 03:14:53 437.550
MOZHAYETS 4 29 Mar 03:50:25 03:54:57 61° 74° (ENE) 03:59:28
BEESAT 29 Mar 03:58:36 04:03:08 43° 261° (W) 04:07:41 436.000
O/OREOS (USA 219) 29 Mar 04:00:48 04:04:41 27° 257° (WSW) 04:08:33 437.305
Oscar 19 29 Mar 04:07:07 04:10:49 20° 295° (WNW) 04:14:32 437.125/150
ITUPSAT 1 29 Mar 04:17:17 04:21:24 28° 263° (W) 04:25:32 437.325
ITAMSAT 1 29 Mar 04:19:57 04:25:00 49° 100° (E) 04:30:00 435.822/435.867
Tancredo 1 29 Mar 04:33:07 04:34:42 13° 232° (SW) 04:36:17 437.200
AO-7 29 Mar 04:43:13 04:51:24 59° 104° (ESE) 04:59:31 .
Gurwin Techsat 1B 29 Mar 04:44:39 04:47:58 17° 297° (WNW) 04:51:17 435.225
ISS 29 Mar 04:46:29 04:47:42 12° 233° (SW) 04:48:55 437.550
KKS-1 29 Mar 04:47:45 04:52:05 53° 73° (ENE) 04:56:28 437.445
CUBESAT XI-V 29 Mar 04:50:29 04:54:46 41° 73° (ENE) 04:59:06 437.345
STARS 29 Mar 05:15:55 05:20:08 46° 72° (ENE) 05:24:24 437.465
AO-85 29 Mar 05:29:51 05:33:30 35° 54° (NE) 05:37:15 145.980
MOZHAYETS 4 29 Mar 05:30:57 05:32:27 11° 269° (W) 05:33:57
NO-84 29 Mar 05:56:15 05:58:57 32° 130° (SE) 06:01:32 435.350 FM
DOVE 4 29 Mar 05:57:35 05:59:20 12° 88° (E) 06:01:04 437.250
ITAMSAT 1 29 Mar 06:00:28 06:04:03 19° 296° (WNW) 06:07:36 435.822/435.867
BEESAT 3 29 Mar 06:07:56 06:09:16 11° 44° (NE) 06:10:35 437.485
M-CUBED/EXP-1 PRIME 29 Mar 06:13:52 06:17:13 32° 65° (ENE) 06:20:50 437.505
XW-2C 29 Mar 06:24:53 06:25:36 10° 92° (E) 06:26:19 145.795 - 145.815
KKS-1 29 Mar 06:27:01 06:28:55 13° 268° (W) 06:30:52 437.445
CUBESAT XI-V 29 Mar 06:29:21 06:32:18 17° 267° (W) 06:35:16 437.345
CUTE-I 29 Mar 06:31:53 06:35:10 16° 92° (E) 06:38:27 437.470
AO-7 29 Mar 06:36:46 06:43:38 30° 301° (WNW) 06:50:31 .
YUBILEINY 29 Mar 06:39:51 06:45:26 19° 79° (E) 06:50:58 435.215
STRAND 1 29 Mar 06:53:56 06:57:46 22° 66° (ENE) 07:01:35 437.568
STARS 29 Mar 06:54:19 06:56:42 14° 267° (W) 06:59:04 437.465
AO-85 29 Mar 07:11:02 07:13:36 17° 249° (WSW) 07:16:15 145.980
XW-2F 29 Mar 07:12:10 07:15:45 43° 99° (E) 07:19:18 145.980 - 146.000
LilacSat-2 29 Mar 07:18:54 07:22:37 59° 100° (E) 07:26:20 437.200
NUDT-PHONESAT 29 Mar 07:28:39 07:32:17 59° 100° (E) 07:35:54 437.300
HO-68 29 Mar 07:29:41 07:33:43 16° 91° (E) 07:37:44 435.675
DOVE 4 29 Mar 07:32:14 07:37:32 76° 284° (WNW) 07:42:40 437.250
NO-84 29 Mar 07:34:37 07:36:31 16° 325° (NW) 07:38:25 435.350 FM
KAITUO 1B 29 Mar 07:39:46 07:43:28 87° 99° (E) 07:47:09 145.475/437.950
XW-2D 29 Mar 07:39:58 07:43:42 71° 284° (WNW) 07:47:24 145.860 - 145.880
BEESAT 3 29 Mar 07:43:20 07:47:21 75° 241° (WSW) 07:51:19 437.485
XW-2B 29 Mar 07:46:00 07:49:42 61° 284° (WNW) 07:53:24 145.730 - 145.750
CUTE 1.7 + AOD 2 29 Mar 07:47:06 07:49:07 13° 92° (E) 07:51:07 437.475
M-CUBED/EXP-1 PRIME 29 Mar 07:49:24 07:51:48 16° 263° (W) 07:54:18 437.505
XW-2C 29 Mar 07:56:27 08:00:01 43° 286° (WNW) 08:03:34 145.795 - 145.815
BEESAT 2 29 Mar 08:05:39 08:09:43 72° 59° (ENE) 08:13:44 435.950
CUTE-I 29 Mar 08:10:19 08:15:32 56° 288° (WNW) 08:20:43 437.470
XW-2A 29 Mar 08:26:21 08:29:38 46° 99° (E) 08:32:51 145.665 - 145.685
STRAND 1 29 Mar 08:31:44 08:36:37 42° 261° (W) 08:41:30 437.568
YUBILEINY 29 Mar 08:32:22 08:41:07 80° 277° (W) 08:49:53 435.215
JUGNU 29 Mar 08:33:24 08:35:58 13° 177° (S) 08:38:32 437.505
AAUSAT CUBESAT 2 29 Mar 08:44:24 08:47:20 18° 94° (E) 08:50:15 437.432
PCSat 29 Mar 08:44:53 08:49:10 25° 107° (ESE) 08:53:30 145.827
XW-2F 29 Mar 08:48:18 08:49:28 11° 294° (WNW) 08:50:37 145.980 - 146.000
UWE-3 29 Mar 08:56:06 08:59:22 21° 94° (E) 09:02:33 435.000/436.395/437.385
PRISM 29 Mar 08:56:42 08:57:47 11° 64° (ENE) 08:58:52 437.425
SEEDS 29 Mar 09:08:10 09:12:22 80° 102° (ESE) 09:16:35 437.485
HO-68 29 Mar 09:14:57 09:22:08 83° 288° (WNW) 09:29:19 435.675
Oscar 11 29 Mar 09:17:04 09:19:47 16° 93° (E) 09:22:31 .
CUTE 1.7 + AOD 2 29 Mar 09:21:07 09:25:09 45° 286° (WNW) 09:29:11 437.475
ZACube-1 29 Mar 09:29:30 09:33:09 29° 96° (E) 09:36:45 437.345
CUBEBUG 2 29 Mar 09:35:34 09:39:55 74° 285° (WNW) 09:44:07 437.445
AO-73 29 Mar 09:55:42 09:59:48 54° 100° (E) 10:03:50 145.935
FO-29 29 Mar 10:15:11 10:22:18 41° 69° (ENE) 10:28:59 435.910
AAUSAT CUBESAT 2 29 Mar 10:19:08 10:22:49 31° 288° (WNW) 10:26:29 437.432
JUGNU 29 Mar 10:22:11 10:24:06 12° 188° (S) 10:26:01 437.505
PCSat 29 Mar 10:27:11 10:32:17 42° 303° (WNW) 10:37:26 145.827
TIGRISAT 29 Mar 10:27:20 10:31:56 59° 75° (ENE) 10:36:30 435.000
PRISM 29 Mar 10:28:33 10:32:32 56° 259° (W) 10:36:34 437.425
UWE-3 29 Mar 10:32:11 10:35:48 27° 290° (WNW) 10:39:19 435.000/436.395/437.385
YUBILEINY 29 Mar 10:35:03 10:39:22 14° 298° (WNW) 10:43:42 435.215
UNISAT 6 29 Mar 10:38:23 10:43:05 84° 78° (ENE) 10:47:45 437.425
SRMSAT 29 Mar 10:42:19 10:44:53 13° 175° (S) 10:47:27 437.500
Oscar 11 29 Mar 10:52:04 10:56:02 37° 288° (WNW) 11:00:00 .
RS-15 29 Mar 11:02:12 11:10:00 20° 98° (E) 11:17:56 29.354- 29.394
POLYITAN 1 29 Mar 11:02:16 11:03:19 11° 64° (ENE) 11:04:22 437.675
HO-68 29 Mar 11:05:04 11:08:47 15° 305° (NW) 11:12:30 435.675
QB50P2 29 Mar 11:06:00 11:08:01 13° 65° (ENE) 11:10:02 145.880/145.840
ZACube-1 29 Mar 11:06:10 11:09:14 20° 292° (WNW) 11:12:16 437.345
DELFI C3 29 Mar 11:09:53 11:13:52 77° 285° (WNW) 11:17:52 145.870
DUCHIFAT 1 29 Mar 11:13:38 11:15:15 12° 65° (ENE) 11:16:52 145.980
AIST 2D 29 Mar 11:24:02 11:27:06 28° 72° (ENE) 11:30:10 435.315
AO-73 29 Mar 11:34:12 11:35:31 11° 296° (WNW) 11:36:50 145.935
LO-87 29 Mar 11:46:55 11:50:05 27° 97° (E) 11:53:13 145.935 - 145.965
NANOSAT C BR1 29 Mar 11:58:41 12:02:43 43° 73° (ENE) 12:06:45 145.865
FO-29 29 Mar 12:00:00 12:07:11 40° 263° (W) 12:14:01 435.910
ESTCUBE 1 29 Mar 12:04:24 12:08:06 25° 96° (E) 12:11:48 437.505/2401.250
EO-79 29 Mar 12:05:10 12:09:22 57° 74° (ENE) 12:13:34 145.935-145.965
TIGRISAT 29 Mar 12:06:56 12:08:54 12° 269° (W) 12:10:53 435.000
SRMSAT 29 Mar 12:30:36 12:33:12 13° 185° (S) 12:35:47 437.500
NO-84 29 Mar 12:32:06 12:33:27 12° 32° (NNE) 12:34:50 435.350 FM
POLYITAN 1 29 Mar 12:34:16 12:38:32 63° 259° (W) 12:42:47 437.675
QB50P2 29 Mar 12:39:11 12:43:21 51° 260° (W) 12:47:32 145.880/145.840
DUCHIFAT 1 29 Mar 12:46:14 12:50:24 56° 259° (W) 12:54:37 145.980
BUGSAT 1 29 Mar 12:49:07 12:53:11 48° 73° (ENE) 12:57:17 437.445
AIST 2D 29 Mar 12:58:25 13:00:21 14° 267° (W) 13:02:17 435.315
VELOX 1 29 Mar 13:02:35 13:06:33 31° 97° (E) 13:10:30 145.980
RS-15 29 Mar 13:08:39 13:20:37 87° 118° (ESE) 13:33:03 29.354- 29.394
LO-87 29 Mar 13:20:59 13:23:17 16° 291° (WNW) 13:25:35 145.935 - 145.965
SPROUT 29 Mar 13:22:00 13:26:07 45° 99° (E) 13:30:12 437.525
NANOSAT C BR1 29 Mar 13:36:20 13:38:36 14° 267° (W) 13:40:53 145.865
ESTCUBE 1 29 Mar 13:41:00 13:44:50 28° 290° (WNW) 13:48:40 437.505/2401.250
Oscar 19 29 Mar 13:41:47 13:46:45 55° 73° (ENE) 13:51:45 437.125/150
EO-79 29 Mar 13:44:29 13:45:26 11° 269° (W) 13:46:23 145.935-145.965
AO-7 29 Mar 13:52:55 13:56:45 14° 49° (NE) 14:00:35 .
50 SAT 29 Mar 13:58:38 14:02:09 81° 284° (WNW) 14:05:40 437.505
SO-50 29 Mar 14:00:50 14:04:59 33° 114° (ESE) 14:09:08 436.795
DX 1 29 Mar 14:04:38 14:08:59 62° 101° (ESE) 14:13:19 434.975-435.025
NO-84 29 Mar 14:08:05 14:11:16 74° 227° (SW) 14:14:44 435.350 FM
Gurwin Techsat 1B 29 Mar 14:22:21 14:27:39 77° 75° (ENE) 14:32:59 435.225
BUGSAT 1 29 Mar 14:26:54 14:28:47 13° 268° (W) 14:30:39 437.445
UKube-1 29 Mar 14:37:56 14:42:17 79° 284° (WNW) 14:46:36 .
VELOX 1 29 Mar 14:39:22 14:42:48 22° 292° (WNW) 14:46:13 145.980
SPROUT 29 Mar 14:59:18 15:01:37 14° 294° (WNW) 15:03:55 437.525
Oscar 19 29 Mar 15:23:27 15:26:23 15° 268° (W) 15:29:21 437.125/150
RS-15 29 Mar 15:24:22 15:34:49 32° 323° (NW) 15:45:31 29.354- 29.394
ITAMSAT 1 29 Mar 15:35:50 15:41:00 63° 73° (ENE) 15:46:10 435.822/435.867
AO-7 29 Mar 15:39:46 15:47:59 68° 68° (ENE) 15:56:13 .
SO-50 29 Mar 15:41:34 15:45:28 26° 310° (NW) 15:49:21 436.795
DX 1 29 Mar 15:43:04 15:44:37 12° 297° (WNW) 15:46:08 434.975-435.025
MOZHAYETS 4 29 Mar 15:48:30 15:51:20 16° 93° (E) 15:54:09
BEESAT 29 Mar 16:00:15 16:04:55 54° 101° (E) 16:09:33 436.000
Gurwin Techsat 1B 29 Mar 16:06:32 16:08:08 11° 270° (W) 16:09:44 435.225
ITUPSAT 1 29 Mar 16:18:44 16:23:31 84° 104° (ESE) 16:28:16 437.325
O/OREOS (USA 219) 29 Mar 16:31:25 16:35:39 42° 105° (ESE) 16:39:57 437.305
KKS-1 29 Mar 16:42:46 16:44:21 12° 91° (E) 16:45:54 437.445
CUBESAT XI-V 29 Mar 16:50:45 16:52:31 12° 91° (E) 16:54:18 437.345
ITAMSAT 1 29 Mar 17:18:12 17:20:50 14° 268° (W) 17:23:30 435.822/435.867
MOZHAYETS 4 29 Mar 17:24:21 17:28:39 42° 288° (WNW) 17:32:57
PCSat 29 Mar 17:34:39 17:37:56 16° 46° (NE) 17:41:11 145.827
AO-7 29 Mar 17:34:52 17:41:15 24° 265° (W) 17:47:41 .
BEESAT 29 Mar 17:39:32 17:42:12 15° 296° (WNW) 17:44:52 436.000
RS-15 29 Mar 17:45:41 17:53:10 17° 358° (N) 18:00:37 29.354- 29.394
CUTE-I 29 Mar 17:51:30 17:55:42 24° 66° (ENE) 17:59:55 437.470
XW-2F 29 Mar 17:52:11 17:54:37 17° 69° (ENE) 17:57:02 145.980 - 146.000
LilacSat-2 29 Mar 17:59:20 18:02:19 22° 70° (ENE) 18:05:18 437.200
HO-68 29 Mar 18:00:45 18:01:41 10° 51° (NE) 18:02:38 435.675
NUDT-PHONESAT 29 Mar 18:06:44 18:09:32 20° 70° (ENE) 18:12:19 437.300
O/OREOS (USA 219) 29 Mar 18:12:09 18:15:15 18° 302° (WNW) 18:18:23 437.305
KKS-1 29 Mar 18:16:49 18:21:14 57° 286° (WNW) 18:25:35 437.445
KAITUO 1B 29 Mar 18:18:05 18:21:19 28° 72° (ENE) 18:24:32 145.475/437.950
XW-2D 29 Mar 18:19:08 18:22:41 38° 73° (ENE) 18:26:13 145.860 - 145.880
XW-2B 29 Mar 18:25:05 18:28:42 44° 74° (ENE) 18:32:18 145.730 - 145.750
CUBESAT XI-V 29 Mar 18:25:38 18:30:14 60° 285° (WNW) 18:34:50 437.345
DOVE 4 29 Mar 18:35:06 18:39:49 85° 76° (ENE) 18:44:52 437.250
XW-2C 29 Mar 18:35:17 18:39:02 62° 76° (ENE) 18:42:47 145.795 - 145.815
STARS 29 Mar 18:43:03 18:47:27 68° 285° (WNW) 18:51:48 437.465
YUBILEINY 29 Mar 18:45:06 18:53:26 47° 77° (ENE) 19:01:44 435.215
XW-2A 29 Mar 18:57:29 18:59:00 12° 68° (ENE) 19:00:31 145.665 - 145.685
PCSat 29 Mar 19:16:31 19:21:57 79° 245° (WSW) 19:27:21 145.827
XW-2F 29 Mar 19:25:12 19:28:31 29° 263° (W) 19:31:50 145.980 - 146.000
M-CUBED/EXP-1 PRIME 29 Mar 19:27:44 19:32:07 37° 103° (ESE) 19:36:23 437.505
CUTE-I 29 Mar 19:30:26 19:35:28 41° 261° (W) 19:40:32 437.470
Tancredo 1 29 Mar 19:30:30 19:33:28 40° 134° (SE) 19:36:27 437.200
LilacSat-2 29 Mar 19:33:30 19:36:30 22° 265° (W) 19:39:29 437.200
NUDT-PHONESAT 29 Mar 19:40:20 19:43:19 23° 264° (W) 19:46:18 437.300
HO-68 29 Mar 19:40:58 19:47:58 61° 70° (ENE) 19:54:59 435.675
AO-85 29 Mar 19:43:10 19:46:24 20° 112° (ESE) 19:49:30 145.980
ISS 29 Mar 19:46:40 19:49:50 54° 137° (SE) 19:53:02 437.550
UWE-3 29 Mar 19:51:29 19:54:23 16° 66° (ENE) 19:57:14 435.000/436.395/437.385
KAITUO 1B 29 Mar 19:52:58 19:55:21 16° 266° (W) 19:57:43 145.475/437.950
XW-2D 29 Mar 19:55:25 19:57:01 12° 268° (W) 19:58:37 145.860 - 145.880
SEEDS 29 Mar 19:57:47 20:01:40 40° 73° (ENE) 20:05:33 437.485
RS-15 29 Mar 20:01:24 20:11:45 29° 34° (NE) 20:21:44 29.354- 29.394
XW-2B 29 Mar 20:02:14 20:03:06 11° 268° (W) 20:03:58 145.730 - 145.750
CUTE 1.7 + AOD 2 29 Mar 20:11:13 20:15:25 86° 258° (WSW) 20:19:38 437.475
Oscar 11 29 Mar 20:11:59 20:12:55 11° 64° (ENE) 20:13:51 .
ZACube-1 29 Mar 20:23:32 20:26:51 20° 68° (ENE) 20:30:08 437.345
XW-2A 29 Mar 20:28:20 20:31:26 31° 262° (W) 20:34:34 145.665 - 145.685
CUBEBUG 2 29 Mar 20:30:40 20:35:24 71° 76° (ENE) 20:40:06 437.445
